STARLINK-2379, 47798

Orbit data source: Space-Track

STARLINK-2379, 47798 is a payload satellite owned by SpaceX/Seattle (US) in LEO that was launched on Thu, 11 Mar 2021 UTC via an FALCON 9 launch vehicle from the Air Force Eastern Test Range (AFETR). Payload-class satellites include a variety of spacecraft equipped with specific instruments for various scientific and technological missions. These include communications satellites like Starlink; space stations such as the ISS; scientific satellites like the Hubble; Earth observation satellites from companies like Planet Labs, Umbra, and HawkEye 360; GPS; miniature CubeSats for education and research; and military/defense satellites.

Loading next visibility...
Identifier
47798, 2021-018M
Orbit
LEO
Country
Flag of USUS
Related business
Manufacturer
SpaceX/Seattle
Mission
Operational Commercial Communications
Bus & Motor
STARLINK, Unknown motor
Mass
260 kg wet, ~248 kg dry
Launch date (UTC)
2021-03-11 (5 years ago)
Launch vehicle
FALCON 9
Launch site
Air Force Eastern Test Range (AFETR)
Object type
Payload
Rocket body
Debris
Shape & HBR
Box + 1 Pan, 10.1 m
Radar Cross Section
13.562 m², Large (>1 m²)

Expand to show TLE details & history
Last TLE update: 7 hours ago

TLE from 7 hours ago
0 STARLINK-2379
1 47798U 21018M   26120.16667823  .00033596  00000-0  13398-2 0  9999
2 47798  53.1323 359.6781 0001576 104.1096  70.0445 15.24913521  5832
Epoch: 2026-04-30T04:00Z
TLE epoch observation values (Epoch: 2026-04-30T04:00:00.999Z)
Latitude
4.60912°
Longitude
-101.89024°
Altitude
491.09 km
Speed
7.621 km/s
True Right ascension
11h 44m 55s
True Declination
4° 34' 50"
Sunlit
Object was in full shadow at epoch
Visualization orbit readout
Latitude
Unknown
Longitude
Unknown
Altitude
Unknown
Speed
Unknown
Apparent Right ascension
Unknown
Apparent Declination
Unknown
Sunlit
N/A
Visualization observer readout
Local Sidereal Time
18:57:40
Azimuth
Unknown
Elevation
Unknown
Doppler factor
Unknown
Orbital elements
Apogee altitude
492.388 km
Perigee altitude
490.223 km
Semi-major axis
6,869.442 km
Eccentricity
0.00016
Inclination
53.1323°
RAAN
359.6781°
Arg. of periapsis
104.1096°
True anomaly
70.06148°
Mean anomaly
70.0445°
Eccentric anomaly
70.05299°
Mean motion
3.81207 °/min
Orbital period
94.44 mins
BSTAR
0.0013398
Loading maneuver chart data...
Computing Atmospheric mass density...
Loading historical data...
Loading historical data...
Loading historical data...
Loading historical data...
Loading historical data...
Loading historical data...
Loading historical data...

Documentation

Showing up to 5 results
|